| time (UTC) | temp F | wind direction | speed MPH | gust MPH | rain 1hr in | rain 24hr in | rain mn in | humidity % | barometer mb |
| 20260901043038 | 62 | 186 | 3.0 | 11.0 | 0.00 | 0.00 | 0.00 | 74 | 1017.8 |
| 20260901041535 | 62 | 186 | 0.0 | 10.0 | 0.00 | 0.00 | 0.00 | 74 | 1017.6 |
| 20260901040035 | 63 | 188 | 3.0 | 11.0 | 0.00 | 0.00 | 0.00 | 73 | 1017.4 |
| 20260901034535 | 63 | 186 | 2.0 | 8.0 | 0.00 | 0.00 | 0.00 | 73 | 1017.2 |
| 20260901033034 | 63 | 188 | 3.0 | 10.0 | 0.00 | 0.00 | 0.00 | 72 | 1016.9 |
| 20260901031534 | 64 | 191 | 3.0 | 11.0 | 0.00 | 0.00 | 0.00 | 71 | 1016.9 |
| 20260901030033 | 64 | 192 | 1.0 | 7.0 | 0.00 | 0.00 | 0.00 | 70 | 1016.8 |
| 20260901024532 | 65 | 200 | 3.0 | 8.0 | 0.00 | 0.00 | 0.00 | 69 | 1016.7 |
| 20260901023038 | 66 | 201 | 2.0 | 9.0 | 0.00 | 0.00 | 0.00 | 68 | 1016.7 |
| 20260901021532 | 67 | 202 | 2.0 | 10.0 | 0.00 | 0.00 | 0.00 | 66 | 1016.7 |
| 20260901020030 | 68 | 202 | 4.0 | 10.0 | 0.00 | 0.00 | 0.00 | 64 | 1016.7 |
| 20260901014530 | 69 | 196 | 3.0 | 10.0 | 0.00 | 0.00 | 0.00 | 62 | 1016.5 |
| 20260901013031 | 70 | 200 | 2.0 | 11.0 | 0.00 | 0.00 | 0.00 | 61 | 1016.3 |
| 20260901011529 | 71 | 186 | 2.0 | 9.0 | 0.00 | 0.00 | 0.00 | 58 | 1016.3 |
| 20260901010029 | 72 | 180 | 2.0 | 7.0 | 0.00 | 0.00 | 0.00 | 57 | 1016.3 |
| 20260901004528 | 72 | 183 | 2.0 | 6.0 | 0.00 | 0.00 | 0.00 | 56 | 1016.2 |
| 20260901003028 | 73 | 188 | 3.0 | 11.0 | 0.00 | 0.00 | 0.00 | 55 | 1016.5 |
| 20260901001528 | 74 | 188 | 1.0 | 9.0 | 0.00 | 0.00 | 0.00 | 54 | 1016.4 |
| 20260901000027 | 74 | 177 | 1.0 | 9.0 | 0.00 | 0.00 | 0.00 | 55 | 1016.4 |
| 20260831234527 | 74 | 178 | 2.0 | 8.0 | 0.00 | 0.00 | 0.00 | 54 | 1016.5 |
| 20260831233026 | 74 | 177 | 1.0 | 9.0 | 0.00 | 0.00 | 0.00 | 55 | 1016.6 |
| 20260831231526 | 74 | 176 | 2.0 | 7.0 | 0.00 | 0.00 | 0.00 | 54 | 1016.7 |
| 20260831230034 | 73 | 180 | 2.0 | 10.0 | 0.00 | 0.00 | 0.00 | 54 | 1016.8 |
| 20260831224525 | 73 | 178 | 2.0 | 8.0 | 0.00 | 0.00 | 0.00 | 53 | 1017.0 |
| 20260831223025 | 74 | 179 | 2.0 | 7.0 | 0.00 | 0.00 | 0.00 | 52 | 1017.1 |
| 20260831221524 | 74 | 179 | 3.0 | 7.0 | 0.00 | 0.00 | 0.00 | 51 | 1017.2 |
| 20260831220023 | 74 | 183 | 1.0 | 8.0 | 0.00 | 0.00 | 0.00 | 53 | 1017.4 |
| 20260831214521 | 74 | 182 | 2.0 | 7.0 | 0.00 | 0.00 | 0.00 | 52 | 1017.6 |
| 20260831213019 | 73 | 190 | 1.0 | 7.0 | 0.00 | 0.00 | 0.00 | 55 | 1017.6 |
| 20260831211519 | 73 | 188 | 3.0 | 11.0 | 0.00 | 0.00 | 0.00 | 54 | 1017.8 |
| 20260831210017 | 73 | 192 | 2.0 | 7.0 | 0.00 | 0.00 | 0.00 | 55 | 1017.9 |
| 20260831204523 | 73 | 192 | 1.0 | 7.0 | 0.00 | 0.00 | 0.00 | 55 | 1017.8 |
| 20260831203014 | 72 | 192 | 2.0 | 9.0 | 0.00 | 0.00 | 0.00 | 56 | 1017.8 |
| 20260831201514 | 71 | 190 | 0.0 | 8.0 | 0.00 | 0.00 | 0.00 | 59 | 1018.1 |
| 20260831200017 | 70 | 191 | 2.0 | 10.0 | 0.00 | 0.00 | 0.00 | 60 | 1018.2 |
| 20260831194502 | 69 | 192 | 2.0 | 9.0 | 0.00 | 0.00 | 0.00 | 61 | 1018.3 |
| 20260831193100 | 69 | 192 | 1.0 | 14.0 | 0.00 | 0.00 | 0.00 | 63 | 1018.5 |
| 20260831191556 | 68 | 179 | 2.0 | 8.0 | 0.00 | 0.00 | 0.00 | 65 | 1018.7 |
| 20260831190112 | 68 | 185 | 2.0 | 9.0 | 0.00 | 0.00 | 0.00 | 65 | 1018.7 |
| 20260831184553 | 67 | 184 | 2.0 | 11.0 | 0.00 | 0.00 | 0.00 | 67 | 1018.6 |
| 20260831183047 | 66 | 182 | 2.0 | 8.0 | 0.00 | 0.00 | 0.00 | 69 | 1018.6 |
| 20260831181548 | 66 | 182 | 3.0 | 9.0 | 0.00 | 0.00 | 0.00 | 68 | 1018.7 |
| 20260831180044 | 65 | 181 | 0.0 | 5.0 | 0.00 | 0.00 | 0.00 | 70 | 1018.7 |
| 20260831174542 | 64 | 180 | 2.0 | 10.0 | 0.00 | 0.00 | 0.00 | 72 | 1018.6 |
| 20260831173042 | 63 | 180 | 1.0 | 9.0 | 0.00 | 0.00 | 0.00 | 72 | 1018.6 |
| 20260831171542 | 63 | 178 | 1.0 | 12.0 | 0.00 | 0.00 | 0.00 | 74 | 1018.6 |
| 20260831170039 | 62 | 173 | 1.0 | 7.0 | 0.00 | 0.00 | 0.00 | 76 | 1018.4 |
| 20260831164540 | 61 | 173 | 3.0 | 9.0 | 0.00 | 0.00 | 0.00 | 77 | 1018.4 |
| 20260831163039 | 60 | 172 | 3.0 | 8.0 | 0.00 | 0.00 | 0.00 | 80 | 1018.3 |
| 20260831161532 | 59 | 171 | 1.0 | 7.0 | 0.00 | 0.00 | 0.00 | 82 | 1018.2 |
| 20260831160029 | 59 | 171 | 0.0 | 8.0 | 0.00 | 0.00 | 0.00 | 82 | 1018.2 |
| 20260831154527 | 59 | 171 | 3.0 | 8.0 | 0.00 | 0.00 | 0.00 | 83 | 1018.2 |
| 20260831153026 | 58 | 171 | 0.0 | 5.0 | 0.00 | 0.00 | 0.00 | 83 | 1018.1 |
| 20260831151523 | 58 | 171 | 1.0 | 6.0 | 0.00 | 0.00 | 0.00 | 83 | 1017.9 |
| 20260831150021 | 58 | 171 | 2.0 | 8.0 | 0.00 | 0.00 | 0.00 | 83 | 1017.7 |
| 20260831144521 | 58 | 172 | 1.0 | 8.0 | 0.00 | 0.00 | 0.00 | 83 | 1017.6 |
| 20260831143032 | 58 | 171 | 0.0 | 7.0 | 0.00 | 0.00 | 0.00 | 83 | 1017.5 |
| 20260831141540 | 57 | 173 | 0.0 | 9.0 | 0.00 | 0.00 | 0.00 | 84 | 1017.3 |
| 20260831140029 | 57 | 173 | 1.0 | 6.0 | 0.00 | 0.00 | 0.00 | 84 | 1017.0 |
| 20260831134508 | 57 | 174 | 1.0 | 6.0 | 0.00 | 0.00 | 0.00 | 84 | 1016.9 |
| 20260831133009 | 57 | 174 | 0.0 | 11.0 | 0.00 | 0.00 | 0.00 | 83 | 1016.8 |
| 20260831131506 | 58 | 173 | 0.0 | 7.0 | 0.00 | 0.00 | 0.00 | 83 | 1016.7 |
| 20260831130003 | 58 | 173 | 1.0 | 7.0 | 0.00 | 0.00 | 0.00 | 83 | 1016.6 |
| 20260831124501 | 58 | 171 | 1.0 | 5.0 | 0.00 | 0.00 | 0.00 | 83 | 1016.5 |
| 20260831123101 | 58 | 171 | 2.0 | 8.0 | 0.00 | 0.00 | 0.00 | 82 | 1016.5 |
| 20260831121559 | 58 | 171 | 3.0 | 7.0 | 0.00 | 0.00 | 0.00 | 82 | 1016.4 |
| 20260831120058 | 58 | 171 | 1.0 | 5.0 | 0.00 | 0.00 | 0.00 | 81 | 1016.5 |
| 20260831114555 | 59 | 171 | 1.0 | 5.0 | 0.00 | 0.00 | 0.00 | 81 | 1016.3 |
| 20260831113054 | 59 | 171 | 0.0 | 4.0 | 0.00 | 0.00 | 0.00 | 80 | 1016.3 |
| 20260831111551 | 59 | 171 | 0.0 | 4.0 | 0.00 | 0.00 | 0.00 | 79 | 1016.2 |
| 20260831110053 | 60 | 171 | 0.0 | 4.0 | 0.00 | 0.00 | 0.00 | 78 | 1016.3 |
| 20260831104549 | 60 | 171 | 0.0 | 5.0 | 0.00 | 0.00 | 0.00 | 77 | 1016.3 |
| 20260831103048 | 60 | 171 | 1.0 | 6.0 | 0.00 | 0.00 | 0.00 | 77 | 1016.2 |
| 20260831101600 | 60 | 171 | 0.0 | 4.0 | 0.00 | 0.00 | 0.00 | 76 | 1016.2 |
| 20260831100057 | 61 | 171 | 0.0 | 1.0 | 0.00 | 0.00 | 0.00 | 75 | 1016.1 |
| 20260831094544 | 61 | 171 | 0.0 | 4.0 | 0.00 | 0.00 | 0.00 | 75 | 1016.0 |
| 20260831093042 | 61 | 171 | 0.0 | 4.0 | 0.00 | 0.00 | 0.00 | 74 | 1016.0 |
| 20260831091540 | 62 | 171 | 0.0 | 5.0 | 0.00 | 0.00 | 0.00 | 73 | 1016.1 |
| 20260831090055 | 62 | 171 | 0.0 | 6.0 | 0.00 | 0.00 | 0.00 | 72 | 1016.0 |
| 20260831084537 | 62 | 172 | 1.0 | 7.0 | 0.00 | 0.00 | 0.00 | 71 | 1016.1 |
| 20260831083034 | 63 | 172 | 0.0 | 5.0 | 0.00 | 0.00 | 0.00 | 70 | 1016.1 |
| 20260831081533 | 63 | 172 | 0.0 | 6.0 | 0.00 | 0.00 | 0.00 | 69 | 1016.1 |
| 20260831080031 | 63 | 172 | 0.0 | 4.0 | 0.00 | 0.00 | 0.00 | 68 | 1016.2 |
| 20260831074530 | 63 | 172 | 1.0 | 4.0 | 0.00 | 0.00 | 0.00 | 68 | 1016.1 |
| 20260831073029 | 64 | 172 | 0.0 | 4.0 | 0.00 | 0.00 | 0.00 | 68 | 1016.0 |
| 20260831071526 | 64 | 173 | 0.0 | 4.0 | 0.00 | 0.00 | 0.00 | 67 | 1016.0 |
| 20260831070030 | 65 | 173 | 0.0 | 4.0 | 0.00 | 0.00 | 0.00 | 67 | 1016.0 |
| 20260831064522 | 65 | 173 | 0.0 | 3.0 | 0.00 | 0.00 | 0.00 | 66 | 1016.1 |
| 20260831063022 | 66 | 172 | 0.0 | 5.0 | 0.00 | 0.00 | 0.00 | 65 | 1016.0 |
| 20260831061521 | 66 | 172 | 0.0 | 2.0 | 0.00 | 0.00 | 0.00 | 65 | 1015.9 |
| 20260831060021 | 67 | 172 | 0.0 | 4.0 | 0.00 | 0.00 | 0.00 | 64 | 1015.8 |
| 20260831054525 | 67 | 172 | 0.0 | 4.0 | 0.00 | 0.00 | 0.00 | 63 | 1015.9 |
| 20260831053020 | 68 | 172 | 0.0 | 3.0 | 0.00 | 0.00 | 0.00 | 62 | 1016.0 |
| 20260831051526 | 69 | 172 | 0.0 | 4.0 | 0.00 | 0.00 | 0.00 | 61 | 1015.9 |
| 20260831050019 | 69 | 173 | 1.0 | 6.0 | 0.00 | 0.00 | 0.00 | 59 | 1015.9 |
| 20260831044520 | 70 | 172 | 0.0 | 7.0 | 0.00 | 0.00 | 0.00 | 58 | 1015.9 |